Location: Burland Observatory
(39.4088°N, 105.4217°W)
Time: 22:19:58
(UTC-07:00)

SR - Pass Details

Date: 13 December 2019
Orbit: 574 x 882 km, 66.7° (Epoch: 25 January)

Event Time Altitude Azimuth Distance (km) Brightness Sun altitude
Rises 08:47:34 0° 214° (SW) 3,216 ? 13.5°
Reaches altitude 10° 08:49:54 10° 217° (SW) 2,338 ? 13.9°
Maximum altitude 08:55:18 70° 300° (WNW) 882 ? 14.6°
Drops below altitude 10° 09:01:07 10° 25° (NNE) 2,508 ? 15.3°
Sets 09:03:41 0° 28° (NNE) 3,468 ? 15.6°
